Montgomery, NY

9:49 AM EDT on May 28, 2017 (GMT -0400)
Orange County

Weather History for KMGJ - November, 2011

Change the Weather History Date:

Saturday, November 19, 2011

  Actual Average (KSWF) Record (KSWF)
Temperature  
Mean Temperature 38 °F -  
Max Temperature 51 °F 46 °F 67 °F (1975)
Min Temperature 24 °F 30 °F 17 °F (1990)
Degree Days  
Heating Degree Days 28    
Moisture  
Dew Point 25 °F    
Average Humidity 69    
Maximum Humidity 91    
Minimum Humidity 33    
Precipitation  
Precipitation 0.00 in - - ()
Sea Level Pressure  
Sea Level Pressure 30.33 in    
Wind  
Wind Speed 4 mph (SSW)    
Max Wind Speed 16 mph    
Max Gust Speed 26 mph    
Visibility 10 miles    
Events      
Averages and records for this station are not official NWS values.
T = Trace of Precipitation, MM = Missing Value Source: NWS Daily Summary

Daily Weather History Graph

Daily Weather History Graph

Search for Another Location

Airport or City:

Trip Planner

Search our weather history database for the weather conditions in past years. The results will help you decide how hot, cold, wet, or windy it might be!

Date:

Astronomy

Nov. 19, 2011 Rise Set
Actual Time 6:50 AM EST 4:34 PM EST
Civil Twilight 6:20 AM EST 5:04 PM EST
Nautical Twilight 5:46 AM EST 5:37 PM EST
Astronomical Twilight 5:13 AM EST 6:10 PM EST
Moon 12:03 AM EST (11/19) 12:54 PM EST (11/19)
Length of Visible Light 10h 44m
Length of Day
9h 44m
Last Quarter, 38% of the Moon is Illuminated
Nov 19
Last Quarter
Nov 25
New
Dec 2
First Quarter
Dec 10
Full
Dec 17
Last Quarter

Hourly Weather History & Observations

Time (EST) Temp. Windchill Dew Point Humidity Pressure Visibility Wind Dir Wind Speed Gust Speed Precip Events Conditions
12:54 AM 28.0 °F - 23.0 °F 81% 30.40 in 10.0 mi Calm Calm - N/A   Clear
1:54 AM 24.1 °F 19.7 °F 21.9 °F 91% 30.40 in 10.0 mi SW 3.5 mph - N/A   Scattered Clouds
3:54 AM 28.9 °F 23.9 °F 24.1 °F 82% 30.38 in 10.0 mi South 4.6 mph - N/A   Mostly Cloudy
4:54 AM 28.0 °F - 24.1 °F 85% 30.39 in 10.0 mi Calm Calm - N/A   Mostly Cloudy
5:54 AM 26.1 °F - 23.0 °F 88% 30.39 in 10.0 mi Calm Calm - N/A   Partly Cloudy
6:54 AM 25.0 °F - 21.9 °F 88% 30.40 in 10.0 mi Calm Calm - N/A   Clear
7:54 AM 27.0 °F 23.0 °F 23.0 °F 85% 30.41 in 10.0 mi SSE 3.5 mph - N/A   Clear
8:54 AM 34.0 °F 28.8 °F 26.1 °F 73% 30.40 in 10.0 mi SSW 5.8 mph - N/A   Clear
9:54 AM 41.0 °F 33.1 °F 27.0 °F 57% 30.40 in 10.0 mi SW 15.0 mph 20.7 mph N/A   Clear
10:54 AM 44.1 °F 36.8 °F 24.1 °F 45% 30.38 in 10.0 mi SW 16.1 mph 26.5 mph N/A   Clear
11:54 AM 48.0 °F - 25.0 °F 41% 30.34 in 10.0 mi SSW 15.0 mph - N/A   Clear
12:54 PM 50.0 °F - 25.0 °F 38% 30.32 in 10.0 mi SW 15.0 mph 19.6 mph N/A   Clear
1:54 PM 51.1 °F - 23.0 °F 33% 30.30 in 10.0 mi SW 12.7 mph - N/A   Clear
3:54 PM 46.9 °F - 26.1 °F 44% 30.27 in 10.0 mi SSW 4.6 mph - N/A   Clear
4:54 PM 45.0 °F 41.2 °F 25.0 °F 46% 30.27 in 10.0 mi South 6.9 mph - N/A   Clear
5:54 PM 44.1 °F 41.5 °F 25.0 °F 47% 30.27 in 10.0 mi South 4.6 mph - N/A   Clear
6:54 PM 37.0 °F - 30.0 °F 76% 30.27 in 10.0 mi Calm Calm - N/A   Clear
7:54 PM 35.1 °F - 28.0 °F 76% 30.26 in 10.0 mi Calm Calm - N/A   Clear
8:54 PM 33.1 °F - 28.9 °F 85% 30.26 in 10.0 mi Calm Calm - N/A   Clear
9:54 PM 33.1 °F - 28.9 °F 85% 30.25 in 10.0 mi Calm Calm - N/A   Clear
10:54 PM 34.0 °F - 28.0 °F 79% 30.23 in 10.0 mi Calm Calm - N/A   Partly Cloudy
11:54 PM 33.1 °F - 28.0 °F 82% 30.22 in 10.0 mi Calm Calm - N/A   Mostly Cloudy